Dewpoint
-7 -8 -7 -6 -5 -1 0 1 1 2 1 0 0 -0 1 0 0 0 0 0 1 1 0 1 3 2 2 1 1 3 1 2 3 3 1 1 2 2 2 2 2 2 2 2
-7 -8 -8 -7 -5 -5 -4 1 1 1 0 1 -1 1 0 0 0 -0 0 1 0 -0 1 2 2 2 2 2 2 2 1 2 1 1 1 1 3 2 1 -0 0 2 3 -1
-7 -8 -8 -8 -6 -4 -1 1 -0 -0 -0 0 -0 1 1 1 -0 -1 -1 -1 -1 -1 -1 -0 2 2 1 2 2 1 -0 1 0 -1 -2 1 3 2 1 1 1 2 2 0
-10 -7 -8 -9 -7 -4 0 -3 -1 1 -1 -1 -1 -1 -0 1 0 -1 -2 -2 -2 -1 -1 -1 1 1 1 1 2 1 0 1 1 1 1 1 1 1 1 2 2 2 -1 -0
-13 -8 -7 -9 -9 -6 -2 -2 -2 -1 -2 -1 -2 -2 0 -0 0 -1 -1 -2 -1 -2 -1 -2 -1 -0 0 0 2 1 0 -0 0 -0 -1 0 2 1 1 1 2 2 2 2
-10 -12 -7 -9 -10 -7 -6 -4 -2 -2 -2 -2 -2 -2 -1 -1 -0 -1 -1 -1 -1 -1 -2 -2 -2 -1 -1 -1 1 1 1 0 -1 0 -3 -1 -3 -2 -2 -1 -1 -0 2 -1
-3 -10 -12 -7 -10 -9 -7 -6 -2 -2 -4 -2 -3 -2 -2 -1 -1 -0 -1 -1 -2 -2 -1 -2 -2 -1 -1 -1 -1 -1 -0 -1 -1 0 -2 -8 -12 -7 -5 -2 -3 -3 -3 -4
-1 -4 -9 -11 -8 -10 -9 -6 -5 -4 -3 -3 -3 -2 -3 -2 -2 -2 -3 -2 -1 -1 -3 -4 -5 -4 -2 -1 -1 -1 -2 -1 -0 -0 0 -4 -11 -5 -4 -4 -9 -6 -4 -5
2 -1 -4 -9 -10 -9 -8 -8 -6 -4 -6 -8 -4 -3 -3 -4 -3 -4 -2 -2 -2 -3 -3 -3 -5 -8 -6 -1 -0 -2 -1 -2 -1 0 1 -6 -14 -9 -6 -8 -12 -16 -7 -6
3 2 -0 -2 -7 -10 -9 -6 -6 -6 -4 -4 -4 -5 -4 -3 -3 -4 -4 -2 -1 -2 -2 -3 -3 -4 -6 -4 -2 0 1 0 1 1 2 0 -4 -7 -6 -10 -16 -11 -8 -8
2 3 3 1 -1 -3 -6 -7 -7 -5 -5 -6 -2 -3 -2 -1 -2 -6 -5 -4 -3 -2 -2 -2 -3 -4 -5 -4 -6 -2 -0 0 1 1 2 -0 -4 -5 -8 -11 -11 -8 -8 -8
1 2 3 3 2 1 -1 -3 -4 -6 -5 -5 -4 -3 -2 -3 -3 -3 -4 -6 -3 -3 -3 -3 -4 -3 -4 -5 -7 -5 -4 -4 -2 -1 -1 -6 -5 -6 -8 -7 -6 -7 -8 -9
-1 1 2 1 2 2 1 1 -0 -3 -4 -4 -4 -2 -3 -3 -2 -2 -3 -2 -2 -2 -2 -3 -3 -3 -4 -3 -4 -7 -7 -6 -4 -6 -9 -5 -8 -9 -8 -9 -9 -9 -9 -8
-3 -3 0 1 2 2 2 1 -2 -4 -3 -1 -3 -2 -1 -2 -3 -3 -2 -2 -1 -1 -1 -2 -2 -2 -4 -4 -5 -6 -7 -7 -7 -6 -8 -9 -10 -9 -7 -6 -6 -7 -6 -7
-2 -4 -4 1 2 2 2 1 -3 -3 -2 -2 -2 -2 -2 -2 -3 -3 -2 -2 -2 -2 -1 -1 -1 -2 -1 -2 -3 -2 -5 -6 -6 -5 -7 -6 -5 -5 -5 -4 -4 -4 -5 -7
-3 -5 -6 -2 3 2 2 -1 -3 -3 1 -1 -2 -3 -2 -3 -3 -3 -3 -2 -1 -1 -1 -2 -2 -1 -1 -1 -1 -3 -4 -4 -4 -4 -3 -4 -6 -6 -4 -3 -3 -4 -5 -6
-6 -8 -6 -2 2 1 2 1 1 1 1 -2 -2 -2 -1 -2 -3 -2 -2 -1 -1 -1 -1 -0 -1 -1 -0 -1 0 -3 -4 -3 -3 -4 -4 -5 -7 -5 -3 -3 -4 -3 -4 -4
-8 -9 -5 2 1 1 1 1 1 1 -0 -2 -3 -1 -1 -2 -2 -2 -2 -1 -1 -1 -1 -1 -1 -1 -1 0 -1 -2 -3 -4 -7 -6 -6 -5 -7 -10 -7 -3 -3 -3 -3 -3
-8 -8 -3 0 1 1 1 -0 -1 -1 -2 -1 -1 -1 -3 -3 -2 -2 -2 -2 -2 -2 -1 -2 -1 -2 0 -1 -2 -3 -4 -4 -6 -10 -11 -10 -10 -10 -9 -7 -5 -4 -4 -4
-5 -4 -3 1 0 0 -1 -1 -2 -1 -1 -1 -1 -1 -2 -3 -2 -2 -2 -2 -2 -2 -2 -2 -1 -1 -3 -4 -5 -4 -9 -10 -10 -11 -12 -12 -11 -8 -8 -7 -7 -6 -5 -4
-2 -1 -1 0 0 -0 -1 -1 -1 -2 -2 -1 -2 -1 -3 -2 -3 -3 -2 -4 -2 -1 -2 -1 -1 -1 -3 -5 -8 -13 -13 -10 -10 -9 -9 -10 -11 -11 -10 -9 -8 -8 -8 -7
-2 -2 -0 -1 -1 -1 -1 -3 -1 -1 -1 -2 -2 -2 -2 -2 -3 -2 -2 -4 -3 -2 -3 -1 -1 -3 -6 -7 -7 -7 -6 -6 -6 -6 -6 -6 -6 -7 -9 -11 -10 -8 -8 -8
-2 -2 -2 -2 -2 -1 -1 -2 -1 -1 -3 -2 -2 -3 -3 -2 -3 -3 -4 -2 -2 -5 -3 -2 -4 -6 -7 -7 -7 -8 -7 -6 -6 -6 -6 -6 -7 -8 -6 -6 -9 -10 -8 -8
-1 -1 -2 -3 -3 -2 -4 -4 -5 -3 -3 -2 -2 -3 -3 -3 -4 -4 -2 -3 -4 -2 -2 -3 -5 -7 -6 -6 -7 -7 -8 -9 -10 -9 -8 -7 -6 -8 -8 -7 -6 -7 -10 -10
-2 -2 -3 -4 -4 -4 -3 -2 -2 -2 -2 -3 -3 -3 -3 -5 -4 -3 -3 -1 -1 -3 -3 -4 -7 -7 -8 -7 -7 -8 -10 -9 -10 -10 -7 -9 -11 -9 -9 -8 -8 -8 -6 -7
-2 -2 -2 -4 -3 -3 -3 -2 -2 -2 -3 -3 -3 -5 -6 -5 -4 -2 -1 -1 -2 -4 -6 -6 -6 -6 -6 -6 -5 -6 -7 -9 -9 -7 -7 -7 -8 -10 -10 -9 -9 -9 -7 -7
-3 -4 -3 -3 -3 -3 -3 -2 -2 -2 -3 -4 -3 -3 -3 -5 -3 -3 -4 -4 -5 -6 -6 -7 -8 -8 -8 -7 -5 -5 -8 -8 -7 -7 -6 -7 -8 -9 -10 -9 -10 -5 -5 -4
Wind_Speed
9 10 13 8 5 4 4 4 2 7 5 5 3 2 1 1 3 3 2 1 3 2 2 2 2 2 1 1 2 2 1 4 3 7 2 5 3 5 5 3 3 2 3 7
9 9 10 12 5 4 5 3 2 7 3 3 2 1 2 2 2 3 2 2 2 1 2 3 2 2 1 3 3 4 2 1 2 6 4 1 4 5 4 4 2 5 4 6
8 9 9 10 8 2 1 2 2 3 4 4 5 3 2 2 1 2 2 2 3 3 3 4 3 2 0 2 3 3 2 2 5 6 4 4 4 5 6 6 3 3 8 8
9 8 9 8 5 1 1 1 0 2 2 4 3 2 1 2 2 1 2 2 2 2 2 2 3 2 1 1 4 2 3 3 3 5 8 5 5 5 7 11 13 8 1 9
13 10 8 8 4 3 2 2 2 3 3 3 2 4 0 3 1 1 2 3 1 1 3 5 7 5 3 4 1 3 2 2 2 5 4 6 8 11 12 14 15 17 18 28
14 13 10 7 4 2 2 4 5 2 1 1 2 2 1 1 1 1 1 0 1 2 2 1 0 2 2 2 6 5 4 2 2 5 3 6 7 8 15 7 7 14 14 26
13 14 13 11 6 2 1 3 4 3 2 2 3 2 2 1 1 1 1 1 1 1 1 4 2 2 3 3 4 4 4 3 1 4 6 3 5 5 6 14 9 16 15 19
13 13 13 13 10 7 3 1 1 2 2 3 2 4 3 2 2 2 3 3 3 3 2 2 3 3 1 1 1 4 2 3 1 1 2 8 4 2 5 6 6 7 17 18
13 12 13 12 12 9 7 6 3 2 0 6 4 5 5 4 3 3 3 3 3 2 3 2 0 2 1 1 2 6 5 4 3 1 2 4 3 1 2 2 5 2 6 10
10 11 11 11 11 10 8 7 8 4 4 2 4 2 3 6 3 2 2 1 1 1 1 2 3 3 3 3 5 5 3 1 5 4 4 9 7 9 2 2 5 3 3 6
8 8 9 9 10 11 10 6 7 6 3 5 5 5 3 3 3 3 4 2 1 2 1 2 2 2 2 1 2 5 6 6 4 3 3 8 10 5 6 4 5 8 15 20
6 7 7 8 9 10 10 9 9 9 5 4 4 8 9 8 5 2 5 1 4 5 3 1 2 2 0 2 3 1 3 6 4 9 7 4 10 11 7 13 18 29 36 33
6 7 7 7 7 8 9 12 12 11 4 5 4 5 11 13 13 13 4 3 4 4 3 5 2 4 4 3 5 1 4 6 4 1 4 9 20 26 30 25 25 29 24 23
7 8 9 9 8 9 11 12 10 6 3 2 1 3 5 5 6 7 15 11 3 2 1 0 2 2 6 3 2 3 4 4 3 7 15 21 12 13 16 29 27 26 34 30
9 10 10 8 8 9 11 9 2 6 6 2 5 9 9 7 8 10 12 12 12 7 3 2 3 3 1 2 1 4 8 5 4 5 9 7 23 32 41 35 28 27 27 28
10 10 10 9 8 8 10 2 1 3 13 6 2 3 3 3 2 3 5 7 8 6 4 3 3 3 2 1 3 11 11 14 12 8 25 34 37 36 26 23 32 29 25 23
11 11 10 8 7 7 5 5 6 14 12 5 5 2 2 1 1 1 2 6 4 5 4 3 1 2 3 2 3 3 5 13 24 27 17 26 17 28 32 26 24 21 20 18
10 10 9 7 7 10 10 10 11 9 3 4 1 3 1 2 2 2 3 3 3 3 2 2 3 2 2 4 10 19 19 26 24 12 26 23 25 28 26 22 19 19 20 19
9 8 6 6 9 5 4 3 5 7 5 2 2 1 3 2 2 3 2 2 1 2 1 2 2 2 5 8 13 16 19 16 24 26 23 20 24 25 26 26 21 20 21 18
7 5 3 3 3 4 5 3 1 2 4 5 4 4 3 3 2 1 2 1 1 1 2 2 2 3 17 19 16 11 14 11 13 20 31 32 33 31 31 28 23 21 20 18
8 6 4 3 2 3 1 1 1 2 3 5 5 8 2 4 2 2 2 2 1 1 2 1 2 3 5 2 7 7 11 15 17 20 23 24 26 29 30 29 24 19 14 12
8 5 3 2 1 1 1 2 1 3 3 3 3 3 6 2 2 1 3 3 2 4 0 1 3 4 3 3 10 12 15 21 24 25 28 28 27 28 29 29 26 21 17 13
7 3 3 3 2 2 4 4 2 2 4 5 4 1 2 2 3 2 1 1 3 4 1 4 5 3 3 10 17 21 22 26 26 26 29 30 30 28 27 27 25 26 24 20
3 5 2 4 4 4 3 4 3 2 3 8 7 4 1 2 2 2 1 2 3 2 3 6 3 9 9 10 22 23 26 30 32 33 34 33 30 30 28 29 30 29 29 29
4 4 4 5 7 5 5 7 6 2 5 8 4 4 1 2 1 2 1 2 4 5 5 3 4 5 9 14 23 23 26 29 32 32 33 34 35 35 35 32 32 33 33 33
5 5 3 6 3 9 13 12 11 5 6 4 2 3 3 3 3 3 6 2 6 4 3 2 13 21 19 28 26 31 35 36 33 32 32 34 35 37 39 38 36 37 36 36
4 6 13 10 3 3 4 6 7 7 7 2 3 2 8 1 2 3 4 5 3 6 20 33 39 43 45 43 40 42 44 42 37 36 36 37 38 40 41 41 38 35 35 34
Wind_Direction
19 10 2 4 345 10 343 340 20 2 54 56 40 47 45 73 18 33 67 56 80 91 105 101 95 120 263 117 121 68 15 118 178 210 247 201 179 195 150 136 230 209 153 273
351 9 8 0 352 303 307 360 4 14 55 99 334 294 47 62 44 36 69 63 49 268 116 103 96 116 78 131 97 148 174 74 44 350 358 28 209 197 170 120 90 213 152 262
350 349 5 7 353 357 227 343 12 25 35 71 128 135 141 120 39 43 64 112 82 67 54 23 136 124 275 110 109 118 104 154 187 193 202 149 219 208 182 156 153 205 233 287
2 350 353 2 23 20 213 348 97 58 307 4 15 46 83 116 140 134 72 60 94 145 137 109 145 161 155 77 142 94 114 228 199 252 246 248 240 226 201 208 217 211 181 233
14 7 355 355 23 110 198 204 150 120 92 356 23 354 255 165 246 185 296 146 209 208 175 194 198 159 193 202 108 135 37 267 29 284 303 228 253 245 233 230 234 252 264 278
18 16 13 1 357 205 216 148 145 127 352 79 84 265 324 307 39 335 13 126 67 277 284 176 65 226 121 151 158 176 155 155 56 269 329 312 292 226 219 202 200 222 240 249
15 19 18 16 5 25 135 165 163 164 224 159 191 182 143 182 244 255 296 214 200 236 267 296 283 252 220 203 232 167 139 114 102 275 341 351 246 190 194 197 230 215 247 260
7 15 21 21 20 18 28 36 252 250 193 190 199 173 172 174 233 221 235 217 230 269 318 39 23 350 26 97 60 204 154 115 352 25 274 292 292 145 146 172 284 221 231 255
1 6 16 24 21 22 22 12 353 318 202 242 155 162 183 183 200 319 230 223 222 219 92 75 124 239 276 194 91 51 86 89 126 46 315 263 266 345 184 166 304 272 216 260
352 2 10 17 19 20 25 22 5 339 304 234 194 202 185 165 150 164 291 241 187 196 80 141 178 253 181 209 187 174 138 155 189 196 262 284 246 219 127 35 246 291 265 308
339 348 3 13 12 13 11 10 1 356 292 286 243 240 215 178 186 148 166 64 250 57 107 153 236 190 247 320 194 180 174 152 196 146 214 279 187 94 169 235 325 323 321 310
320 331 340 356 3 4 1 354 346 331 291 271 257 237 240 240 233 239 203 205 177 182 102 187 129 252 46 182 271 188 244 195 184 194 220 264 193 239 264 299 298 303 302 305
316 309 315 332 340 351 353 344 338 330 314 290 266 245 247 251 246 232 257 238 212 193 168 156 152 241 134 208 240 243 247 195 232 343 285 242 284 290 289 309 309 307 304 316
311 309 305 307 323 332 338 341 343 358 337 313 243 227 228 244 247 243 226 230 184 143 123 198 134 218 189 227 266 210 226 164 213 263 291 310 304 336 329 323 316 309 311 309
305 311 310 298 308 325 333 330 350 48 21 270 291 286 277 263 254 246 238 236 240 236 194 149 220 230 204 231 35 252 196 210 180 240 325 304 295 303 308 313 317 314 300 292
287 295 295 296 296 320 333 340 256 356 2 322 315 272 263 297 285 214 203 195 194 186 191 210 244 251 251 275 243 262 241 248 270 286 309 306 305 307 313 307 309 319 307 298
276 282 280 274 279 302 299 283 283 301 321 295 301 275 204 225 286 112 122 162 167 177 193 207 249 258 230 252 250 280 302 311 311 311 314 317 317 313 320 323 311 302 304 296
271 273 275 259 272 278 278 279 288 286 265 261 282 282 269 173 154 142 132 146 169 186 191 199 200 227 214 254 255 283 307 322 319 330 316 308 309 323 326 324 321 310 307 307
253 256 247 261 262 246 250 252 268 266 228 204 201 254 263 164 131 127 125 139 103 165 181 253 169 215 225 227 269 301 326 321 310 329 339 344 335 339 343 341 334 320 320 317
218 200 202 212 229 253 284 291 217 211 222 219 212 206 250 202 176 128 106 97 133 223 229 189 219 261 265 272 278 309 330 340 339 343 356 353 350 347 346 344 336 323 318 318
171 173 200 200 236 272 346 281 238 203 256 224 227 206 199 198 158 171 167 186 168 228 236 215 266 269 246 56 358 12 28 28 20 9 4 358 350 344 341 344 344 336 331 330
169 162 156 188 180 110 33 234 258 230 259 233 221 194 191 183 201 155 162 135 147 244 139 227 255 248 216 57 51 32 16 8 3 0 356 351 346 344 342 336 331 326 316 311
148 166 162 157 174 200 200 218 223 233 225 202 179 128 137 149 180 88 78 139 208 127 216 233 227 187 110 62 24 9 357 350 348 341 338 337 335 332 328 327 327 314 302 292
157 157 194 193 206 230 191 186 204 248 247 182 164 128 117 147 102 149 142 219 116 216 250 238 243 149 138 22 11 354 347 341 337 334 332 329 328 325 318 317 320 316 304 296
146 178 220 224 235 222 272 291 266 259 159 154 138 94 126 31 76 175 152 203 237 218 237 242 153 97 299 327 322 330 335 331 328 324 322 324 325 324 320 317 314 312 311 307
177 212 243 250 274 254 244 269 279 224 170 162 134 98 59 264 166 189 216 227 224 247 225 295 322 312 292 306 320 323 326 329 321 318 315 317 321 321 317 313 313 312 308 303
206 218 226 250 309 247 237 249 253 224 187 194 110 108 224 134 226 221 204 215 235 280 317 324 324 322 318 312 312 315 318 319 315 313 314 315 316 318 316 315 316 315 310 308
Height
1516 1513 1511 1509 1508 1507 1507 1505 1505 1503 1501 1502 1508 1516 1509 1509 1509 1508 1509 1510 1510 1513 1515 1515 1518 1520 1520 1518 1519 1522 1524 1531 1542 1532 1527 1527 1529 1532 1536 1546 1542 1544 1546 1518
1517 1514 1511 1510 1508 1507 1508 1507 1506 1505 1502 1513 1517 1510 1510 1510 1509 1509 1509 1511 1511 1511 1512 1518 1517 1518 1519 1518 1519 1522 1523 1531 1549 1537 1533 1528 1528 1528 1529 1534 1539 1539 1545 1512
1517 1515 1512 1509 1508 1507 1509 1508 1510 1506 1505 1506 1508 1509 1511 1511 1510 1510 1510 1510 1510 1511 1513 1514 1517 1518 1518 1519 1519 1521 1522 1529 1529 1536 1522 1525 1526 1523 1524 1527 1546 1532 1521 1506
1516 1514 1512 1509 1507 1507 1509 1508 1509 1510 1515 1511 1511 1510 1509 1511 1511 1510 1510 1511 1511 1512 1514 1514 1517 1518 1519 1519 1520 1521 1524 1529 1532 1526 1524 1522 1519 1518 1521 1522 1515 1519 1500 1502
1516 1514 1513 1510 1508 1507 1508 1508 1509 1510 1511 1512 1512 1513 1512 1512 1512 1511 1511 1511 1512 1512 1513 1513 1516 1516 1518 1519 1521 1521 1524 1528 1528 1533 1518 1520 1519 1515 1514 1512 1511 1506 1503 1489
1517 1515 1513 1511 1509 1507 1507 1505 1507 1508 1512 1512 1515 1516 1514 1513 1514 1513 1513 1514 1514 1514 1513 1513 1514 1515 1516 1517 1520 1524 1526 1530 1533 1528 1519 1517 1513 1501 1497 1497 1497 1495 1502 1468
1518 1515 1513 1511 1509 1508 1507 1506 1507 1507 1512 1512 1512 1512 1513 1513 1513 1514 1513 1513 1514 1514 1513 1513 1513 1514 1515 1517 1518 1520 1526 1528 1535 1535 1523 1521 1484 1482 1482 1485 1481 1482 1477 1468
1520 1517 1514 1512 1509 1508 1508 1508 1508 1507 1508 1508 1509 1510 1511 1511 1512 1513 1513 1513 1512 1513 1513 1516 1516 1519 1516 1517 1518 1520 1522 1527 1535 1541 1537 1504 1476 1479 1483 1484 1474 1470 1471 1466
1521 1518 1515 1512 1511 1509 1509 1509 1508 1508 1508 1505 1504 1506 1507 1510 1512 1512 1510 1511 1511 1511 1512 1517 1512 1516 1513 1518 1521 1521 1522 1525 1533 1536 1529 1505 1479 1478 1478 1478 1482 1466 1466 1464
1521 1519 1516 1514 1512 1510 1509 1509 1509 1509 1508 1506 1506 1506 1506 1506 1508 1511 1510 1511 1512 1513 1516 1516 1519 1522 1513 1517 1519 1524 1527 1530 1531 1534 1533 1507 1480 1476 1477 1479 1477 1463 1463 1461
1520 1519 1517 1514 1512 1511 1511 1509 1508 1508 1507 1506 1506 1506 1506 1506 1507 1508 1509 1511 1511 1514 1516 1518 1519 1520 1516 1515 1513 1517 1519 1528 1527 1530 1531 1512 1472 1476 1477 1470 1464 1464 1462 1461
1519 1518 1517 1515 1514 1512 1511 1509 1507 1506 1506 1504 1504 1505 1505 1506 1507 1507 1506 1507 1506 1507 1514 1518 1518 1516 1521 1518 1512 1509 1512 1502 1507 1506 1489 1470 1469 1466 1466 1465 1464 1462 1458 1455
1518 1517 1516 1515 1513 1512 1511 1509 1506 1504 1502 1501 1501 1501 1503 1503 1504 1506 1507 1506 1505 1506 1506 1508 1512 1514 1514 1514 1515 1504 1497 1495 1498 1491 1468 1467 1466 1466 1467 1465 1461 1457 1454 1451
1515 1516 1515 1514 1512 1511 1510 1508 1506 1504 1502 1502 1500 1499 1501 1501 1501 1501 1502 1504 1505 1506 1508 1508 1511 1511 1507 1507 1502 1503 1493 1492 1489 1486 1472 1466 1462 1463 1463 1460 1458 1454 1450 1447
1513 1513 1513 1512 1511 1510 1509 1507 1506 1506 1507 1503 1499 1497 1497 1497 1497 1498 1500 1501 1503 1505 1507 1508 1510 1506 1506 1502 1503 1499 1484 1483 1485 1480 1473 1472 1463 1459 1457 1453 1449 1446 1443 1440
1511 1510 1509 1510 1509 1508 1508 1506 1508 1507 1506 1503 1499 1497 1494 1496 1496 1495 1495 1496 1499 1502 1504 1505 1504 1503 1504 1504 1501 1478 1478 1477 1477 1475 1473 1468 1461 1454 1451 1447 1443 1441 1437 1435
1506 1507 1507 1506 1507 1507 1509 1508 1506 1504 1506 1505 1499 1493 1492 1493 1495 1496 1496 1496 1497 1499 1501 1501 1501 1501 1502 1501 1496 1478 1477 1477 1474 1471 1468 1462 1455 1451 1445 1441 1436 1436 1433 1431
1503 1504 1504 1504 1505 1506 1504 1503 1504 1503 1502 1504 1503 1495 1493 1493 1493 1495 1495 1497 1498 1499 1499 1499 1498 1499 1498 1495 1477 1475 1475 1472 1467 1467 1465 1462 1456 1450 1444 1439 1435 1432 1430 1427
1500 1501 1501 1503 1504 1502 1500 1500 1499 1503 1505 1499 1501 1501 1500 1493 1492 1493 1496 1496 1498 1499 1499 1499 1499 1495 1490 1474 1472 1471 1472 1471 1466 1461 1459 1456 1453 1448 1442 1436 1432 1429 1426 1423
1497 1498 1500 1499 1501 1501 1500 1498 1498 1498 1499 1496 1493 1494 1496 1496 1495 1495 1498 1496 1497 1500 1498 1497 1496 1486 1473 1471 1471 1470 1468 1467 1465 1460 1452 1448 1445 1443 1438 1435 1432 1428 1424 1421
1495 1496 1497 1497 1499 1500 1497 1498 1500 1499 1496 1491 1488 1488 1490 1492 1494 1493 1494 1498 1498 1497 1498 1498 1492 1483 1471 1469 1470 1469 1466 1463 1462 1459 1456 1453 1448 1443 1438 1433 1431 1427 1424 1420
1493 1495 1495 1497 1497 1497 1499 1498 1498 1497 1492 1490 1489 1486 1488 1491 1493 1493 1493 1495 1497 1500 1497 1496 1491 1472 1467 1468 1468 1467 1464 1462 1460 1457 1455 1452 1448 1444 1439 1434 1430 1427 1423 1420
1492 1493 1495 1495 1497 1497 1496 1498 1494 1493 1487 1486 1486 1489 1490 1490 1492 1495 1496 1496 1496 1498 1501 1490 1472 1461 1463 1464 1463 1462 1461 1459 1457 1454 1451 1448 1443 1439 1435 1431 1427 1424 1420 1418
1489 1491 1495 1495 1494 1489 1486 1489 1487 1486 1484 1485 1486 1487 1488 1489 1492 1494 1497 1495 1496 1496 1495 1479 1461 1457 1459 1459 1459 1459 1458 1456 1453 1450 1445 1442 1438 1433 1431 1427 1422 1418 1413 1412
1487 1490 1489 1488 1485 1485 1487 1487 1484 1484 1484 1485 1485 1486 1487 1490 1493 1492 1496 1495 1488 1489 1476 1463 1457 1458 1459 1458 1458 1456 1454 1451 1448 1444 1439 1435 1432 1427 1421 1419 1415 1411 1406 1404
1484 1485 1485 1482 1484 1484 1485 1485 1484 1484 1484 1486 1486 1487 1491 1491 1490 1490 1485 1486 1480 1467 1462 1457 1458 1458 1457 1453 1451 1449 1445 1443 1440 1437 1432 1428 1425 1420 1414 1409 1406 1402 1399 1395
1481 1478 1478 1481 1482 1483 1482 1481 1482 1483 1485 1485 1485 1488 1488 1487 1486 1484 1478 1476 1464 1458 1458 1455 1451 1448 1447 1446 1443 1441 1438 1434 1431 1427 1423 1418 1414 1410 1405 1398 1395 1392 1387 1384